EWG7532 EDDH-GCTS

Flight info

Callsign EWG7532
Flight time 4h 52m
Altitude 36000
Route WSN5G WSN N125 SILQI N872 CIV DCT MEDIL DCT KOVIN DCT NIDUV DCT KIHVI UN872 ERIGA UZ218 FUJTI DCT BAKUP DCT BATAX DCT BEXAL UN866 KONBA
Aircraft A320/M-SDE2E3FGHIRWXY/LB1

Departure

Time 2026-04-26 13:58
Airport Hamburg Helmut Schmidt Airport (EDDH)

Arrival

Time 2026-04-26 18:51
Airport Tenerife Sur Airport (GCTS)
Time Latitude Longitude Altitude Speed Heading
2026-04-26 13:20 53.63074 10.00376 49 ft 0 kts 93°
2026-04-26 13:22 53.63074 10.00375 49 ft 0 kts 93°
2026-04-26 13:50 53.63074 10.00356 48 ft 4 kts 93°
2026-04-26 13:50 53.63076 10.00311 48 ft 4 kts 93°
2026-04-26 13:51 53.63077 10.00265 48 ft 4 kts 93°
2026-04-26 13:51 53.63079 10.00230 47 ft 4 kts 105°
2026-04-26 13:51 53.63091 10.00196 47 ft 4 kts 166°
2026-04-26 13:51 53.63114 10.00192 45 ft 2 kts 176°
2026-04-26 13:52 53.63115 10.00192 45 ft 1 kts 176°
2026-04-26 13:55 53.63066 10.00179 45 ft 7 kts 205°
2026-04-26 13:56 53.63015 10.00126 48 ft 9 kts 212°
2026-04-26 13:56 53.62968 10.00074 48 ft 7 kts 212°
2026-04-26 13:56 53.62927 10.00014 48 ft 8 kts 239°
2026-04-26 13:56 53.62904 9.99938 46 ft 7 kts 243°
2026-04-26 13:57 53.62882 9.99867 47 ft 7 kts 243°
2026-04-26 13:57 53.62858 9.99790 43 ft 8 kts 243°
2026-04-26 13:57 53.62871 9.99746 42 ft 3 kts 324°
2026-04-26 13:57 53.62919 9.99700 45 ft 24 kts 332°
2026-04-26 13:58 53.63293 9.99375 47 ft 93 kts 333°
2026-04-26 13:58 53.64040 9.98731 52 ft 145 kts 333°
2026-04-26 13:58 53.65052 9.97844 224 ft 173 kts 332°
2026-04-26 13:58 53.66118 9.96945 1019 ft 170 kts 332°
2026-04-26 13:59 53.67179 9.96048 1776 ft 172 kts 333°
2026-04-26 13:59 53.68255 9.95130 2429 ft 180 kts 332°
2026-04-26 13:59 53.69435 9.94119 2791 ft 201 kts 332°
2026-04-26 14:00 53.71591 9.88336 4207 ft 239 kts 258°
2026-04-26 14:00 53.71097 9.85536 4708 ft 255 kts 250°
2026-04-26 14:00 53.70674 9.83668 5211 ft 259 kts 249°
2026-04-26 14:01 53.69777 9.79857 6280 ft 263 kts 249°
2026-04-26 14:01 53.69114 9.76948 7042 ft 267 kts 250°
2026-04-26 14:01 53.68473 9.73982 7814 ft 271 kts 252°
2026-04-26 14:01 53.67847 9.70966 8605 ft 274 kts 253°
2026-04-26 14:02 53.67228 9.67909 9353 ft 277 kts 255°
2026-04-26 14:02 53.66613 9.64809 10105 ft 280 kts 255°
2026-04-26 14:02 53.65992 9.61650 10611 ft 291 kts 255°
2026-04-26 14:02 53.65219 9.58338 10778 ft 317 kts 247°
2026-04-26 14:03 53.64042 9.55029 10909 ft 342 kts 237°
2026-04-26 14:03 53.62601 9.51691 11032 ft 362 kts 237°
2026-04-26 14:03 53.61092 9.48188 11379 ft 373 kts 237°
2026-04-26 14:03 53.59562 9.44632 11963 ft 377 kts 237°
2026-04-26 14:04 53.58017 9.41039 12574 ft 380 kts 237°
2026-04-26 14:04 53.56988 9.38651 12974 ft 382 kts 237°
2026-04-26 14:04 53.55422 9.35027 13587 ft 384 kts 237°
2026-04-26 14:04 53.53845 9.31376 14174 ft 387 kts 237°
2026-04-26 14:05 53.52239 9.27658 14707 ft 389 kts 237°
2026-04-26 14:05 53.50646 9.23974 15221 ft 391 kts 237°
2026-04-26 14:05 53.49042 9.20267 15729 ft 393 kts 237°
2026-04-26 14:05 53.47431 9.16546 16221 ft 395 kts 237°
2026-04-26 14:06 53.45808 9.12813 16729 ft 397 kts 236°
2026-04-26 14:06 53.44169 9.09058 17220 ft 399 kts 236°
2026-04-26 14:06 53.42522 9.05292 17686 ft 401 kts 236°
2026-04-26 14:06 53.40867 9.01511 18166 ft 403 kts 236°
2026-04-26 14:07 53.39203 8.97706 18620 ft 406 kts 236°
2026-04-26 14:07 53.37530 8.93883 19016 ft 408 kts 236°
2026-04-26 14:07 53.35851 8.90038 19410 ft 409 kts 238°
2026-04-26 14:07 53.34431 8.85931 19794 ft 408 kts 247°
2026-04-26 14:08 53.33393 8.81497 20175 ft 409 kts 252°
2026-04-26 14:08 53.32416 8.77022 20566 ft 411 kts 252°
2026-04-26 14:08 53.31423 8.72523 20950 ft 413 kts 251°
2026-04-26 14:08 53.30421 8.68014 21311 ft 415 kts 251°
2026-04-26 14:09 53.29414 8.63489 21673 ft 417 kts 251°
2026-04-26 14:09 53.28406 8.58932 22029 ft 419 kts 252°
2026-04-26 14:09 53.27401 8.54357 22378 ft 421 kts 252°
2026-04-26 14:09 53.26396 8.49754 22713 ft 422 kts 252°
2026-04-26 14:10 53.25439 8.45110 23048 ft 424 kts 254°
2026-04-26 14:10 53.24546 8.40411 23381 ft 426 kts 255°
2026-04-26 14:10 53.23683 8.35663 23713 ft 428 kts 255°
2026-04-26 14:10 53.22824 8.30897 24007 ft 430 kts 255°
2026-04-26 14:11 53.21061 8.21327 24545 ft 433 kts 255°
2026-04-26 14:11 53.20153 8.16533 24806 ft 435 kts 254°
2026-04-26 14:11 53.19230 8.11719 25055 ft 436 kts 254°
2026-04-26 14:12 53.18304 8.06895 25298 ft 438 kts 254°
2026-04-26 14:12 53.17381 8.02048 25545 ft 439 kts 255°
2026-04-26 14:12 53.16463 7.97187 25777 ft 441 kts 255°
2026-04-26 14:12 53.15544 7.92307 26012 ft 442 kts 255°
2026-04-26 14:13 53.13684 7.82504 26477 ft 445 kts 254°
2026-04-26 14:13 53.12745 7.77583 26752 ft 445 kts 254°
2026-04-26 14:13 53.11806 7.72681 27103 ft 444 kts 255°
2026-04-26 14:14 53.10871 7.67795 27445 ft 443 kts 255°
2026-04-26 14:14 53.09936 7.62925 27778 ft 442 kts 255°
2026-04-26 14:14 53.08994 7.58053 28114 ft 441 kts 254°
2026-04-26 14:14 53.08054 7.53213 28446 ft 440 kts 254°
2026-04-26 14:15 53.07114 7.48371 28800 ft 439 kts 255°
2026-04-26 14:15 53.06174 7.43544 29134 ft 438 kts 255°
2026-04-26 14:15 53.05229 7.38733 29464 ft 438 kts 255°
2026-04-26 14:15 53.04285 7.33933 29814 ft 437 kts 255°
2026-04-26 14:16 53.03341 7.29140 30144 ft 436 kts 255°
2026-04-26 14:16 53.02399 7.24359 30469 ft 435 kts 255°
2026-04-26 14:16 53.01458 7.19591 30764 ft 434 kts 255°
2026-04-26 14:16 53.00514 7.14849 31047 ft 433 kts 254°
2026-04-26 14:17 52.99560 7.10110 31323 ft 432 kts 254°
2026-04-26 14:17 52.98597 7.05391 31598 ft 431 kts 254°
2026-04-26 14:17 52.97630 7.00679 31880 ft 431 kts 254°
2026-04-26 14:17 52.96663 6.95982 32154 ft 430 kts 254°
2026-04-26 14:18 52.95698 6.91302 32424 ft 429 kts 254°
2026-04-26 14:18 52.94733 6.86620 32696 ft 429 kts 254°
2026-04-26 14:18 52.93770 6.81944 32961 ft 428 kts 254°
2026-04-26 14:18 52.92806 6.77271 33224 ft 427 kts 254°
2026-04-26 14:19 52.91845 6.72614 33484 ft 427 kts 254°
2026-04-26 14:19 52.90886 6.67966 33729 ft 426 kts 254°
2026-04-26 14:19 52.89866 6.63357 33994 ft 428 kts 247°
2026-04-26 14:19 52.88237 6.59207 34232 ft 434 kts 231°
2026-04-26 14:20 52.86084 6.55651 34333 ft 439 kts 227°
2026-04-26 14:20 52.81646 6.48674 34330 ft 441 kts 227°
2026-04-26 14:21 52.77185 6.41713 34324 ft 441 kts 227°
2026-04-26 14:21 52.72736 6.34746 34325 ft 441 kts 227°
2026-04-26 14:22 52.68274 6.27766 34323 ft 442 kts 227°
2026-04-26 14:22 52.63812 6.20809 34320 ft 442 kts 227°
2026-04-26 14:23 52.59330 6.13852 34311 ft 442 kts 227°
2026-04-26 14:23 52.54845 6.06922 34311 ft 443 kts 227°
2026-04-26 14:24 52.50353 5.99995 34316 ft 443 kts 227°
2026-04-26 14:24 52.45853 5.93076 34323 ft 443 kts 227°
2026-04-26 14:25 52.41346 5.86168 34326 ft 444 kts 227°
2026-04-26 14:25 52.36845 5.79278 34147 ft 445 kts 227°
2026-04-26 14:25 52.34576 5.75809 33877 ft 445 kts 227°
2026-04-26 14:26 52.32305 5.72346 33593 ft 445 kts 227°
2026-04-26 14:26 52.30038 5.68896 33349 ft 446 kts 227°
2026-04-26 14:26 52.27738 5.65403 33341 ft 446 kts 227°
2026-04-26 14:27 52.23185 5.58506 33338 ft 447 kts 227°
2026-04-26 14:27 52.18626 5.51613 33324 ft 447 kts 227°
2026-04-26 14:28 52.14056 5.44729 33334 ft 448 kts 227°
2026-04-26 14:28 52.09474 5.37845 33328 ft 448 kts 227°
2026-04-26 14:29 52.04900 5.30974 33324 ft 448 kts 227°
2026-04-26 14:29 52.00308 5.24119 33322 ft 448 kts 227°
2026-04-26 14:30 51.95710 5.17282 33316 ft 448 kts 227°
2026-04-26 14:30 51.91109 5.10449 33317 ft 448 kts 227°
2026-04-26 14:31 51.86508 5.03629 33311 ft 448 kts 227°
2026-04-26 14:31 51.81905 4.96819 33290 ft 448 kts 227°
2026-04-26 14:32 51.77298 4.90032 33311 ft 449 kts 227°
2026-04-26 14:32 51.72680 4.83259 33300 ft 449 kts 227°
2026-04-26 14:33 51.68058 4.76501 33302 ft 449 kts 227°
2026-04-26 14:33 51.63432 4.69743 33303 ft 448 kts 227°
2026-04-26 14:34 51.58807 4.63013 33301 ft 448 kts 226°
2026-04-26 14:34 51.54182 4.56288 33303 ft 448 kts 226°
2026-04-26 14:35 51.49554 4.49579 33298 ft 448 kts 226°
2026-04-26 14:35 51.47239 4.46244 33416 ft 447 kts 226°
2026-04-26 14:35 51.44924 4.42922 33684 ft 446 kts 226°
2026-04-26 14:35 51.42608 4.39601 33956 ft 446 kts 226°
2026-04-26 14:36 51.40123 4.36587 34232 ft 450 kts 217°
2026-04-26 14:36 51.37358 4.34189 34473 ft 454 kts 210°
2026-04-26 14:36 51.34499 4.32024 34713 ft 453 kts 210°
2026-04-26 14:36 51.31650 4.29869 34950 ft 452 kts 210°
2026-04-26 14:37 51.28813 4.27720 35189 ft 451 kts 210°
2026-04-26 14:37 51.23123 4.23399 35301 ft 454 kts 210°
2026-04-26 14:38 51.17408 4.19073 35301 ft 454 kts 209°
2026-04-26 14:38 51.11437 4.15591 35304 ft 458 kts 203°
2026-04-26 14:39 51.06393 4.12842 35305 ft 458 kts 203°
2026-04-26 14:39 51.00357 4.09555 35297 ft 458 kts 203°
2026-04-26 14:40 50.94332 4.06262 35294 ft 458 kts 203°
2026-04-26 14:40 50.88310 4.02980 35289 ft 458 kts 204°
2026-04-26 14:41 50.82360 3.99431 35288 ft 456 kts 206°
2026-04-26 14:41 50.76513 3.95563 35283 ft 455 kts 207°
2026-04-26 14:42 50.70672 3.91696 35281 ft 456 kts 207°
2026-04-26 14:42 50.64786 3.87931 35275 ft 456 kts 206°
2026-04-26 14:43 50.58895 3.84218 35272 ft 456 kts 206°
2026-04-26 14:43 50.53031 3.80431 35272 ft 455 kts 207°
2026-04-26 14:44 50.47238 3.76437 35269 ft 455 kts 208°
2026-04-26 14:44 50.41452 3.72422 35271 ft 455 kts 208°
2026-04-26 14:45 50.35649 3.68461 35268 ft 455 kts 208°
2026-04-26 14:45 50.29838 3.64542 35267 ft 455 kts 207°
2026-04-26 14:46 50.24018 3.60626 35257 ft 455 kts 207°
2026-04-26 14:46 50.18212 3.56711 35256 ft 455 kts 208°
2026-04-26 14:47 50.12405 3.52798 35253 ft 455 kts 207°
2026-04-26 14:47 50.06592 3.48905 35255 ft 455 kts 207°
2026-04-26 14:48 50.00776 3.45035 35245 ft 455 kts 207°
2026-04-26 14:48 49.94958 3.41163 35248 ft 455 kts 207°
2026-04-26 14:49 49.89144 3.37293 35246 ft 455 kts 207°
2026-04-26 14:49 49.83327 3.33445 35242 ft 455 kts 207°
2026-04-26 14:50 49.77504 3.29601 35236 ft 455 kts 207°
2026-04-26 14:50 49.71690 3.25757 35230 ft 455 kts 207°
2026-04-26 14:51 49.65865 3.21928 35235 ft 455 kts 207°
2026-04-26 14:51 49.60040 3.18123 35236 ft 455 kts 207°
2026-04-26 14:52 49.54210 3.14308 35234 ft 454 kts 209°
2026-04-26 14:52 49.49039 3.09025 35236 ft 442 kts 228°
2026-04-26 14:53 49.45279 3.01728 35222 ft 432 kts 244°
2026-04-26 14:53 49.42315 2.93701 35223 ft 432 kts 244°
2026-04-26 14:54 49.39328 2.85678 35225 ft 433 kts 244°
2026-04-26 14:54 49.36337 2.77668 35224 ft 433 kts 244°
2026-04-26 14:55 49.33346 2.69661 35231 ft 432 kts 244°
2026-04-26 14:55 49.30483 2.61568 35235 ft 432 kts 245°
2026-04-26 14:56 49.27660 2.53383 35240 ft 431 kts 245°
2026-04-26 14:56 49.24847 2.45334 35239 ft 432 kts 245°
2026-04-26 14:57 49.21983 2.37266 35238 ft 432 kts 245°
2026-04-26 14:57 49.19093 2.29161 35241 ft 431 kts 244°
2026-04-26 14:58 49.16177 2.21208 35243 ft 432 kts 244°
2026-04-26 14:58 49.13180 2.13182 35245 ft 432 kts 244°
2026-04-26 14:59 49.10225 2.05275 35246 ft 431 kts 244°
2026-04-26 14:59 49.07653 1.97057 35245 ft 429 kts 249°
2026-04-26 15:00 49.05180 1.88784 35244 ft 429 kts 248°
2026-04-26 15:00 49.02687 1.80530 35241 ft 429 kts 248°
2026-04-26 15:01 49.00185 1.72288 35237 ft 429 kts 248°
2026-04-26 15:01 48.97673 1.64051 35231 ft 429 kts 248°
2026-04-26 15:02 48.95159 1.55808 35231 ft 429 kts 248°
2026-04-26 15:02 48.92633 1.47516 35231 ft 429 kts 248°
2026-04-26 15:03 48.90129 1.39334 35233 ft 429 kts 248°
2026-04-26 15:03 48.87601 1.31108 35234 ft 430 kts 248°
2026-04-26 15:04 48.85064 1.22899 35234 ft 430 kts 247°
2026-04-26 15:04 48.82513 1.14693 35236 ft 429 kts 247°
2026-04-26 15:05 48.79947 1.06449 35231 ft 429 kts 247°
2026-04-26 15:05 48.77399 0.98281 35232 ft 428 kts 247°
2026-04-26 15:06 48.74851 0.90120 35238 ft 428 kts 246°
2026-04-26 15:06 48.71821 0.82336 35235 ft 429 kts 241°
2026-04-26 15:07 48.67149 0.70805 35235 ft 428 kts 241°
2026-04-26 15:07 48.64040 0.63143 35233 ft 427 kts 241°
2026-04-26 15:08 48.60924 0.55507 35231 ft 426 kts 241°
2026-04-26 15:08 48.57808 0.47891 35227 ft 426 kts 240°
2026-04-26 15:09 48.54694 0.40294 35224 ft 426 kts 240°
2026-04-26 15:09 48.51576 0.32699 35213 ft 426 kts 240°
2026-04-26 15:10 48.48975 0.26391 35206 ft 426 kts 240°
2026-04-26 15:10 48.45308 0.17523 35200 ft 427 kts 240°
2026-04-26 15:11 48.42163 0.09934 35192 ft 427 kts 240°
2026-04-26 15:11 48.39009 0.02351 35187 ft 428 kts 239°
2026-04-26 15:12 48.35817 -0.05233 35187 ft 429 kts 238°
2026-04-26 15:12 48.32345 -0.12541 35185 ft 430 kts 235°
2026-04-26 15:13 48.28692 -0.19670 35191 ft 431 kts 234°
2026-04-26 15:13 48.25047 -0.26811 35187 ft 431 kts 234°
2026-04-26 15:14 48.22020 -0.32763 35190 ft 431 kts 234°
2026-04-26 15:14 48.18372 -0.39899 35192 ft 431 kts 234°
2026-04-26 15:15 48.14721 -0.47030 35190 ft 431 kts 234°
2026-04-26 15:15 48.11078 -0.54141 35191 ft 430 kts 234°
2026-04-26 15:16 48.07427 -0.61232 35193 ft 430 kts 234°
2026-04-26 15:16 48.03764 -0.68317 35190 ft 430 kts 234°
2026-04-26 15:17 48.00694 -0.74237 35189 ft 430 kts 234°
2026-04-26 15:17 47.96436 -0.82443 35188 ft 430 kts 234°
2026-04-26 15:18 47.92769 -0.89503 35190 ft 430 kts 234°
2026-04-26 15:18 47.89101 -0.96546 35188 ft 430 kts 234°
2026-04-26 15:19 47.85425 -1.03573 35184 ft 430 kts 233°
2026-04-26 15:19 47.81741 -1.10594 35183 ft 430 kts 233°
2026-04-26 15:20 47.78030 -1.17645 35186 ft 430 kts 233°
2026-04-26 15:20 47.74347 -1.24637 35181 ft 430 kts 233°
2026-04-26 15:21 47.70657 -1.31626 35179 ft 430 kts 233°
2026-04-26 15:21 47.66965 -1.38593 35183 ft 429 kts 233°
2026-04-26 15:22 47.63267 -1.45550 35183 ft 429 kts 233°
2026-04-26 15:22 47.59565 -1.52480 35181 ft 429 kts 232°
2026-04-26 15:23 47.55651 -1.59166 35180 ft 429 kts 229°
2026-04-26 15:23 47.51593 -1.65660 35179 ft 429 kts 229°
2026-04-26 15:24 47.47555 -1.72163 35178 ft 429 kts 229°
2026-04-26 15:24 47.43562 -1.78709 35184 ft 429 kts 229°
2026-04-26 15:25 47.40247 -1.84151 35187 ft 429 kts 229°
2026-04-26 15:25 47.35517 -1.91707 35189 ft 429 kts 224°
2026-04-26 15:26 47.30606 -1.96744 35187 ft 432 kts 213°
2026-04-26 15:26 47.25467 -2.01325 35185 ft 432 kts 213°
2026-04-26 15:27 47.20330 -2.05913 35186 ft 432 kts 213°
2026-04-26 15:27 47.15195 -2.10496 35185 ft 432 kts 213°
2026-04-26 15:28 47.10051 -2.15067 35188 ft 431 kts 213°
2026-04-26 15:28 47.04912 -2.19615 35194 ft 431 kts 213°
2026-04-26 15:29 46.99776 -2.24160 35198 ft 431 kts 213°
2026-04-26 15:30 46.89505 -2.33221 35200 ft 431 kts 213°
2026-04-26 15:30 46.84371 -2.37726 35200 ft 430 kts 213°
2026-04-26 15:31 46.76674 -2.44480 35200 ft 430 kts 213°
2026-04-26 15:32 46.69847 -2.50473 35199 ft 430 kts 213°
2026-04-26 15:32 46.63844 -2.55706 35198 ft 430 kts 212°
2026-04-26 15:33 46.58706 -2.60168 35195 ft 430 kts 212°
2026-04-26 15:33 46.53566 -2.64628 35195 ft 430 kts 212°
2026-04-26 15:34 46.48427 -2.69074 35197 ft 430 kts 212°
2026-04-26 15:34 46.43292 -2.73512 35200 ft 430 kts 212°
2026-04-26 15:35 46.38159 -2.77951 35198 ft 430 kts 212°
2026-04-26 15:35 46.33021 -2.82385 35195 ft 430 kts 212°
2026-04-26 15:36 46.27873 -2.86797 35196 ft 430 kts 212°
2026-04-26 15:36 46.22738 -2.91223 35197 ft 430 kts 213°
2026-04-26 15:37 46.17626 -2.95687 35194 ft 430 kts 213°
2026-04-26 15:37 46.12511 -3.00152 35190 ft 430 kts 213°
2026-04-26 15:38 46.07389 -3.04603 35193 ft 430 kts 212°
2026-04-26 15:38 46.02261 -3.09032 35197 ft 430 kts 212°
2026-04-26 15:39 45.97133 -3.13455 35196 ft 430 kts 212°
2026-04-26 15:39 45.92832 -3.17157 35195 ft 430 kts 212°
2026-04-26 15:40 45.86869 -3.22285 35188 ft 430 kts 212°
2026-04-26 15:40 45.81739 -3.26700 35189 ft 430 kts 212°
2026-04-26 15:41 45.76567 -3.31130 35188 ft 430 kts 212°
2026-04-26 15:41 45.71426 -3.35509 35188 ft 430 kts 212°
2026-04-26 15:42 45.66278 -3.39887 35186 ft 430 kts 212°
2026-04-26 15:42 45.61131 -3.44259 35185 ft 430 kts 212°
2026-04-26 15:43 45.55987 -3.48629 35188 ft 430 kts 212°
2026-04-26 15:44 45.48263 -3.55175 35184 ft 431 kts 212°
2026-04-26 15:44 45.40526 -3.61693 35185 ft 431 kts 212°
2026-04-26 15:45 45.32792 -3.68206 35182 ft 431 kts 212°
2026-04-26 15:46 45.25044 -3.74696 35182 ft 431 kts 212°
2026-04-26 15:46 45.21617 -3.77551 35181 ft 431 kts 212°
2026-04-26 15:47 45.12116 -3.85469 35179 ft 431 kts 212°
2026-04-26 15:48 45.06943 -3.89771 35177 ft 431 kts 212°
2026-04-26 15:48 45.01765 -3.94066 35176 ft 432 kts 212°
2026-04-26 15:49 44.96581 -3.98352 35174 ft 432 kts 212°
2026-04-26 15:49 44.92269 -4.01912 35174 ft 432 kts 212°
2026-04-26 15:50 44.87086 -4.06205 35177 ft 432 kts 212°
2026-04-26 15:50 44.81894 -4.10488 35186 ft 432 kts 212°
2026-04-26 15:51 44.76693 -4.14742 35177 ft 432 kts 211°
2026-04-26 15:51 44.71488 -4.19001 35186 ft 433 kts 211°
2026-04-26 15:52 44.66283 -4.23262 35183 ft 433 kts 211°
2026-04-26 15:52 44.61080 -4.27511 35176 ft 433 kts 211°
2026-04-26 15:53 44.55873 -4.31757 35180 ft 433 kts 211°
2026-04-26 15:53 44.50658 -4.35993 35174 ft 433 kts 211°
2026-04-26 15:54 44.45438 -4.40220 35174 ft 434 kts 211°
2026-04-26 15:54 44.40213 -4.44445 35187 ft 434 kts 212°
2026-04-26 15:55 44.35039 -4.48790 35175 ft 434 kts 213°
2026-04-26 15:55 44.29897 -4.53200 35175 ft 434 kts 213°
2026-04-26 15:56 44.24749 -4.57589 35181 ft 434 kts 212°
2026-04-26 15:56 44.19583 -4.61954 35183 ft 434 kts 212°
2026-04-26 15:57 44.14409 -4.66296 35182 ft 434 kts 212°
2026-04-26 15:57 44.09235 -4.70636 35185 ft 434 kts 212°
2026-04-26 15:58 44.04058 -4.74973 35179 ft 434 kts 212°
2026-04-26 15:58 43.98887 -4.79291 35184 ft 434 kts 212°
2026-04-26 15:59 43.93706 -4.83608 35180 ft 434 kts 212°
2026-04-26 15:59 43.88532 -4.87916 35190 ft 434 kts 212°
2026-04-26 16:00 43.83354 -4.92213 35185 ft 434 kts 212°
2026-04-26 16:00 43.78169 -4.96511 35184 ft 434 kts 212°
2026-04-26 16:01 43.72979 -5.00801 35183 ft 434 kts 212°
2026-04-26 16:01 43.67792 -5.05089 35179 ft 435 kts 212°
2026-04-26 16:02 43.62597 -5.09372 35181 ft 435 kts 212°
2026-04-26 16:02 43.57420 -5.13637 35176 ft 436 kts 212°
2026-04-26 16:03 43.52171 -5.17962 35173 ft 437 kts 212°
2026-04-26 16:03 43.46968 -5.22209 35172 ft 438 kts 212°
2026-04-26 16:04 43.41687 -5.26517 35174 ft 438 kts 212°
2026-04-26 16:04 43.36437 -5.30797 35176 ft 439 kts 212°
2026-04-26 16:05 43.31179 -5.35082 35189 ft 440 kts 212°
2026-04-26 16:05 43.25905 -5.39378 35191 ft 441 kts 212°
2026-04-26 16:06 43.20618 -5.43665 35190 ft 442 kts 211°
2026-04-26 16:06 43.15321 -5.47944 35184 ft 442 kts 211°
2026-04-26 16:07 43.10016 -5.52222 35179 ft 443 kts 211°
2026-04-26 16:07 43.04707 -5.56499 35178 ft 443 kts 211°
2026-04-26 16:08 42.99394 -5.60772 35172 ft 443 kts 211°
2026-04-26 16:08 42.94080 -5.65040 35166 ft 443 kts 211°
2026-04-26 16:09 42.88763 -5.69297 35149 ft 443 kts 211°
2026-04-26 16:09 42.83436 -5.73547 35143 ft 443 kts 211°
2026-04-26 16:10 42.78116 -5.77798 35136 ft 444 kts 211°
2026-04-26 16:10 42.72788 -5.82047 35129 ft 444 kts 211°
2026-04-26 16:11 42.67452 -5.86284 35127 ft 444 kts 211°
2026-04-26 16:11 42.62114 -5.90512 35126 ft 445 kts 211°
2026-04-26 16:12 42.56759 -5.94736 35121 ft 445 kts 211°
2026-04-26 16:12 42.48726 -6.01078 35111 ft 446 kts 211°
2026-04-26 16:13 42.43370 -6.05308 35102 ft 446 kts 211°
2026-04-26 16:13 42.37999 -6.09530 35103 ft 446 kts 211°
2026-04-26 16:14 42.32626 -6.13741 35099 ft 447 kts 211°
2026-04-26 16:15 42.24557 -6.20057 35097 ft 447 kts 211°
2026-04-26 16:15 42.19163 -6.24261 35098 ft 448 kts 211°
2026-04-26 16:16 42.11059 -6.30562 35095 ft 448 kts 211°
2026-04-26 16:16 42.05650 -6.34748 35093 ft 448 kts 211°
2026-04-26 16:17 42.00246 -6.38943 35094 ft 449 kts 211°
2026-04-26 16:17 41.94833 -6.43137 35089 ft 449 kts 211°
2026-04-26 16:18 41.86708 -6.49397 35084 ft 449 kts 211°
2026-04-26 16:19 41.78585 -6.55643 35076 ft 449 kts 211°
2026-04-26 16:20 41.70461 -6.61890 35076 ft 449 kts 213°
2026-04-26 16:20 41.62759 -6.68985 35068 ft 448 kts 216°
2026-04-26 16:21 41.57637 -6.73727 35063 ft 448 kts 216°
2026-04-26 16:21 41.52506 -6.78465 35063 ft 448 kts 216°
2026-04-26 16:22 41.47379 -6.83204 35054 ft 448 kts 216°
2026-04-26 16:22 41.42247 -6.87933 35053 ft 449 kts 216°
2026-04-26 16:23 41.37109 -6.92657 35052 ft 449 kts 216°
2026-04-26 16:23 41.31938 -6.97408 35050 ft 449 kts 216°
2026-04-26 16:24 41.26798 -7.02122 35046 ft 449 kts 216°
2026-04-26 16:24 41.21643 -7.06835 35050 ft 450 kts 216°
2026-04-26 16:25 41.17357 -7.10749 35048 ft 450 kts 216°
2026-04-26 16:25 41.12190 -7.15453 35053 ft 450 kts 216°
2026-04-26 16:26 41.07022 -7.20156 35053 ft 451 kts 216°
2026-04-26 16:26 41.01850 -7.24854 35059 ft 451 kts 216°
2026-04-26 16:27 40.96667 -7.29547 35061 ft 451 kts 216°
2026-04-26 16:27 40.91485 -7.34223 35068 ft 451 kts 216°
2026-04-26 16:28 40.86306 -7.38904 35070 ft 451 kts 216°
2026-04-26 16:28 40.81119 -7.43581 35075 ft 451 kts 216°
2026-04-26 16:29 40.75930 -7.48253 35077 ft 451 kts 216°
2026-04-26 16:29 40.70735 -7.52911 35080 ft 452 kts 216°
2026-04-26 16:30 40.65534 -7.57560 35069 ft 452 kts 216°
2026-04-26 16:30 40.60330 -7.62205 35076 ft 452 kts 216°
2026-04-26 16:31 40.55124 -7.66859 35075 ft 452 kts 216°
2026-04-26 16:31 40.49916 -7.71505 35075 ft 452 kts 215°
2026-04-26 16:32 40.45538 -7.75389 35064 ft 453 kts 215°
2026-04-26 16:32 40.39468 -7.80766 35066 ft 453 kts 215°
2026-04-26 16:33 40.34212 -7.85425 35063 ft 453 kts 215°
2026-04-26 16:33 40.28986 -7.90046 35064 ft 454 kts 215°
2026-04-26 16:34 40.23745 -7.94673 35057 ft 454 kts 215°
2026-04-26 16:34 40.18502 -7.99274 35057 ft 454 kts 215°
2026-04-26 16:35 40.13247 -8.03888 35049 ft 455 kts 216°
2026-04-26 16:35 40.07987 -8.08507 35052 ft 455 kts 215°
2026-04-26 16:36 40.02724 -8.13111 35048 ft 455 kts 215°
2026-04-26 16:36 39.97461 -8.17702 35051 ft 455 kts 215°
2026-04-26 16:37 39.92199 -8.22296 35058 ft 455 kts 216°
2026-04-26 16:37 39.87821 -8.26115 35055 ft 455 kts 216°
2026-04-26 16:38 39.81670 -8.31464 35055 ft 455 kts 216°
2026-04-26 16:38 39.76396 -8.36032 35050 ft 455 kts 216°
2026-04-26 16:39 39.71129 -8.40589 35055 ft 455 kts 216°
2026-04-26 16:39 39.65860 -8.45138 35048 ft 455 kts 216°
2026-04-26 16:40 39.60592 -8.49690 35044 ft 455 kts 216°
2026-04-26 16:40 39.55325 -8.54225 35041 ft 454 kts 216°
2026-04-26 16:41 39.50054 -8.58746 35045 ft 454 kts 216°
2026-04-26 16:41 39.44783 -8.63262 35035 ft 454 kts 216°
2026-04-26 16:42 39.39510 -8.67784 35039 ft 454 kts 216°
2026-04-26 16:42 39.34240 -8.72286 35045 ft 454 kts 216°
2026-04-26 16:43 39.28965 -8.76779 35046 ft 454 kts 216°
2026-04-26 16:43 39.23695 -8.81265 35052 ft 454 kts 216°
2026-04-26 16:44 39.18426 -8.85739 35051 ft 453 kts 216°
2026-04-26 16:44 39.13160 -8.90205 35047 ft 453 kts 216°
2026-04-26 16:45 39.07888 -8.94668 35045 ft 453 kts 216°
2026-04-26 16:45 39.02634 -8.99117 35043 ft 452 kts 216°
2026-04-26 16:46 38.97361 -9.03559 35036 ft 452 kts 216°
2026-04-26 16:46 38.92101 -9.07987 35032 ft 452 kts 216°
2026-04-26 16:47 38.86842 -9.12409 35027 ft 452 kts 216°
2026-04-26 16:47 38.81589 -9.16816 35028 ft 451 kts 216°
2026-04-26 16:48 38.76332 -9.21222 35027 ft 451 kts 216°
2026-04-26 16:48 38.71082 -9.25612 35028 ft 450 kts 216°
2026-04-26 16:49 38.65831 -9.29986 35025 ft 450 kts 215°
2026-04-26 16:49 38.60578 -9.34358 35026 ft 450 kts 215°
2026-04-26 16:50 38.55331 -9.38724 35029 ft 450 kts 215°
2026-04-26 16:50 38.50074 -9.43090 35031 ft 451 kts 215°
2026-04-26 16:51 38.44813 -9.47441 35033 ft 451 kts 215°
2026-04-26 16:51 38.39551 -9.51798 35038 ft 451 kts 215°
2026-04-26 16:52 38.36032 -9.54714 35042 ft 451 kts 216°
2026-04-26 16:52 38.29016 -9.60494 35042 ft 451 kts 216°
2026-04-26 16:53 38.23739 -9.64825 35046 ft 451 kts 216°
2026-04-26 16:53 38.18472 -9.69161 35048 ft 451 kts 216°
2026-04-26 16:54 38.13202 -9.73484 35048 ft 451 kts 215°
2026-04-26 16:54 38.07930 -9.77800 35054 ft 451 kts 216°
2026-04-26 16:55 38.02659 -9.82104 35053 ft 450 kts 215°
2026-04-26 16:55 37.97391 -9.86399 35061 ft 450 kts 215°
2026-04-26 16:56 37.89488 -9.92826 35067 ft 449 kts 215°
2026-04-26 16:57 37.84230 -9.97100 35066 ft 449 kts 215°
2026-04-26 16:57 37.76308 -10.03516 35067 ft 449 kts 215°
2026-04-26 16:58 37.72828 -10.06337 35070 ft 448 kts 215°
2026-04-26 16:59 37.63181 -10.14134 35072 ft 448 kts 215°
2026-04-26 17:00 37.53567 -10.21856 35072 ft 447 kts 215°
2026-04-26 17:00 37.45698 -10.28169 35070 ft 447 kts 215°
2026-04-26 17:01 37.40450 -10.32368 35072 ft 447 kts 214°
2026-04-26 17:01 37.35199 -10.36563 35079 ft 447 kts 215°
2026-04-26 17:02 37.29959 -10.40755 35075 ft 447 kts 215°
2026-04-26 17:02 37.24716 -10.44938 35069 ft 447 kts 214°
2026-04-26 17:03 37.19463 -10.49115 35069 ft 447 kts 214°
2026-04-26 17:03 37.14213 -10.53276 35069 ft 447 kts 214°
2026-04-26 17:04 37.08961 -10.57443 35071 ft 447 kts 214°
2026-04-26 17:04 37.03706 -10.61601 35069 ft 446 kts 215°
2026-04-26 17:05 36.98452 -10.65744 35071 ft 446 kts 214°
2026-04-26 17:05 36.93200 -10.69879 35079 ft 446 kts 214°
2026-04-26 17:06 36.87947 -10.74021 35075 ft 446 kts 214°
2026-04-26 17:06 36.82697 -10.78148 35079 ft 446 kts 214°
2026-04-26 17:07 36.77457 -10.82269 35079 ft 445 kts 214°
2026-04-26 17:07 36.72209 -10.86379 35079 ft 445 kts 214°
2026-04-26 17:08 36.66966 -10.90476 35081 ft 445 kts 214°
2026-04-26 17:08 36.61719 -10.94563 35081 ft 445 kts 214°
2026-04-26 17:09 36.57331 -10.97989 35082 ft 445 kts 214°
2026-04-26 17:09 36.51241 -11.02746 35076 ft 444 kts 214°
2026-04-26 17:10 36.45996 -11.06822 35076 ft 444 kts 214°
2026-04-26 17:10 36.40746 -11.10882 35075 ft 444 kts 214°
2026-04-26 17:11 36.35495 -11.14939 35079 ft 444 kts 214°
2026-04-26 17:11 36.30254 -11.18998 35081 ft 444 kts 213°
2026-04-26 17:12 36.22401 -11.25080 35082 ft 443 kts 213°
2026-04-26 17:13 36.14547 -11.31117 35082 ft 443 kts 213°
2026-04-26 17:14 36.06699 -11.37145 35077 ft 442 kts 213°
2026-04-26 17:14 35.98858 -11.43150 35082 ft 442 kts 213°
2026-04-26 17:15 35.91184 -11.49437 35082 ft 441 kts 217°
2026-04-26 17:16 35.86244 -11.53908 35080 ft 440 kts 217°
2026-04-26 17:16 35.81292 -11.58353 35076 ft 440 kts 217°
2026-04-26 17:17 35.76302 -11.62727 35076 ft 440 kts 216°
2026-04-26 17:17 35.71297 -11.67078 35074 ft 440 kts 216°
2026-04-26 17:18 35.66307 -11.71434 35071 ft 440 kts 216°
2026-04-26 17:18 35.61320 -11.75787 35072 ft 440 kts 216°
2026-04-26 17:19 35.53837 -11.82311 35069 ft 439 kts 216°
2026-04-26 17:19 35.48849 -11.86643 35068 ft 439 kts 215°
2026-04-26 17:20 35.44665 -11.90267 35070 ft 439 kts 215°
2026-04-26 17:20 35.38860 -11.95289 35068 ft 439 kts 215°
2026-04-26 17:21 35.33864 -11.99602 35067 ft 439 kts 215°
2026-04-26 17:21 35.28840 -12.03939 35063 ft 439 kts 215°
2026-04-26 17:22 35.23846 -12.08257 35063 ft 439 kts 215°
2026-04-26 17:22 35.18846 -12.12554 35061 ft 439 kts 214°
2026-04-26 17:23 35.13840 -12.16845 35061 ft 440 kts 214°
2026-04-26 17:23 35.08835 -12.21143 35063 ft 440 kts 214°
2026-04-26 17:24 35.03829 -12.25435 35062 ft 440 kts 214°
2026-04-26 17:24 34.98813 -12.29721 35065 ft 440 kts 214°
2026-04-26 17:25 34.93805 -12.33998 35067 ft 440 kts 214°
2026-04-26 17:25 34.88796 -12.38278 35066 ft 440 kts 214°
2026-04-26 17:26 34.83782 -12.42541 35064 ft 439 kts 214°
2026-04-26 17:26 34.78769 -12.46795 35067 ft 439 kts 214°
2026-04-26 17:27 34.73758 -12.51054 35060 ft 439 kts 214°
2026-04-26 17:27 34.68744 -12.55302 35060 ft 439 kts 214°
2026-04-26 17:28 34.63722 -12.59542 35062 ft 439 kts 214°
2026-04-26 17:28 34.58700 -12.63773 35066 ft 439 kts 214°
2026-04-26 17:29 34.55345 -12.66605 35065 ft 439 kts 214°
2026-04-26 17:29 34.48668 -12.72236 35066 ft 439 kts 214°
2026-04-26 17:30 34.43648 -12.76460 35069 ft 439 kts 214°
2026-04-26 17:30 34.38635 -12.80677 35065 ft 439 kts 214°
2026-04-26 17:31 34.33614 -12.84887 35065 ft 439 kts 214°
2026-04-26 17:31 34.28589 -12.89084 35066 ft 439 kts 214°
2026-04-26 17:32 34.23570 -12.93285 35067 ft 439 kts 214°
2026-04-26 17:32 34.18573 -12.97512 35058 ft 439 kts 214°
2026-04-26 17:33 34.13574 -13.01746 35065 ft 439 kts 214°
2026-04-26 17:34 34.06068 -13.08064 35060 ft 439 kts 214°
2026-04-26 17:34 34.01051 -13.12267 35057 ft 439 kts 214°
2026-04-26 17:35 33.96035 -13.16464 35056 ft 439 kts 214°
2026-04-26 17:35 33.91018 -13.20669 35057 ft 439 kts 214°
2026-04-26 17:36 33.86840 -13.24162 35057 ft 439 kts 214°
2026-04-26 17:36 33.81821 -13.28348 35062 ft 439 kts 214°
2026-04-26 17:37 33.76796 -13.32536 35060 ft 439 kts 214°
2026-04-26 17:37 33.71777 -13.36722 35058 ft 439 kts 214°
2026-04-26 17:38 33.64212 -13.43002 35061 ft 439 kts 214°
2026-04-26 17:38 33.59221 -13.47143 35064 ft 439 kts 214°
2026-04-26 17:39 33.54199 -13.51313 35063 ft 439 kts 214°
2026-04-26 17:39 33.49141 -13.55489 35059 ft 438 kts 214°
2026-04-26 17:40 33.44966 -13.58924 35061 ft 438 kts 214°
2026-04-26 17:40 33.39097 -13.63775 35062 ft 438 kts 214°
2026-04-26 17:41 33.34076 -13.67917 35059 ft 438 kts 214°
2026-04-26 17:41 33.29048 -13.72044 35060 ft 438 kts 214°
2026-04-26 17:42 33.24018 -13.76167 35061 ft 438 kts 214°
2026-04-26 17:42 33.18988 -13.80279 35065 ft 438 kts 214°
2026-04-26 17:43 33.13962 -13.84403 35064 ft 438 kts 214°
2026-04-26 17:43 33.08930 -13.88497 35069 ft 438 kts 214°
2026-04-26 17:44 33.03923 -13.92551 35063 ft 438 kts 214°
2026-04-26 17:44 32.98855 -13.96650 35067 ft 437 kts 214°
2026-04-26 17:45 32.93824 -14.00720 35065 ft 437 kts 214°
2026-04-26 17:45 32.88788 -14.04793 35095 ft 437 kts 214°
2026-04-26 17:46 32.83762 -14.08845 35089 ft 436 kts 214°
2026-04-26 17:46 32.78745 -14.12891 35090 ft 435 kts 214°
2026-04-26 17:47 32.74583 -14.16241 35087 ft 434 kts 214°
2026-04-26 17:47 32.68736 -14.20936 35081 ft 434 kts 214°
2026-04-26 17:48 32.63729 -14.24940 35071 ft 434 kts 214°
2026-04-26 17:48 32.58727 -14.28942 35069 ft 433 kts 214°
2026-04-26 17:49 32.53732 -14.32943 35064 ft 433 kts 214°
2026-04-26 17:49 32.48738 -14.36939 35067 ft 433 kts 214°
2026-04-26 17:50 32.43742 -14.40932 35060 ft 433 kts 214°
2026-04-26 17:50 32.38740 -14.44906 35061 ft 433 kts 213°
2026-04-26 17:51 32.33740 -14.48883 35070 ft 433 kts 213°
2026-04-26 17:51 32.28742 -14.52859 35063 ft 433 kts 213°
2026-04-26 17:52 32.23739 -14.56834 35071 ft 433 kts 213°
2026-04-26 17:52 32.18733 -14.60791 35058 ft 433 kts 213°
2026-04-26 17:53 32.13722 -14.64754 35064 ft 433 kts 213°
2026-04-26 17:54 32.06202 -14.70697 35056 ft 434 kts 214°
2026-04-26 17:54 32.01186 -14.74660 35061 ft 434 kts 214°
2026-04-26 17:55 31.96168 -14.78613 35058 ft 434 kts 214°
2026-04-26 17:55 31.91140 -14.82560 35060 ft 434 kts 214°
2026-04-26 17:56 31.86112 -14.86508 35062 ft 434 kts 214°
2026-04-26 17:57 31.76059 -14.94391 35062 ft 434 kts 214°
2026-04-26 17:57 31.71032 -14.98325 35061 ft 434 kts 214°
2026-04-26 17:58 31.60972 -15.06172 35064 ft 434 kts 214°
2026-04-26 17:59 31.53434 -15.12053 35068 ft 434 kts 214°
2026-04-26 17:59 31.48398 -15.15954 35069 ft 434 kts 214°
2026-04-26 18:00 31.43372 -15.19863 35066 ft 434 kts 214°
2026-04-26 18:00 31.38306 -15.23800 35060 ft 434 kts 214°
2026-04-26 18:01 31.33274 -15.27697 35060 ft 434 kts 213°
2026-04-26 18:01 31.28249 -15.31600 35084 ft 433 kts 214°
2026-04-26 18:02 31.24937 -15.34182 35085 ft 432 kts 213°
2026-04-26 18:02 31.17744 -15.38388 35064 ft 433 kts 205°
2026-04-26 18:03 31.12308 -15.41431 35058 ft 434 kts 208°
2026-04-26 18:03 31.06989 -15.44771 35051 ft 434 kts 210°
2026-04-26 18:04 31.01716 -15.48215 35058 ft 435 kts 210°
2026-04-26 18:05 30.93766 -15.53310 35058 ft 435 kts 209°
2026-04-26 18:05 30.88441 -15.56672 35059 ft 435 kts 209°
2026-04-26 18:06 30.83115 -15.60025 35069 ft 435 kts 209°
2026-04-26 18:06 30.77786 -15.63385 35068 ft 436 kts 209°
2026-04-26 18:07 30.72459 -15.66742 35064 ft 436 kts 209°
2026-04-26 18:07 30.67127 -15.70104 35071 ft 436 kts 209°
2026-04-26 18:08 30.61799 -15.73461 35064 ft 436 kts 209°
2026-04-26 18:08 30.56466 -15.76817 35062 ft 436 kts 209°
2026-04-26 18:09 30.51134 -15.80166 35062 ft 436 kts 209°
2026-04-26 18:09 30.45787 -15.83517 35067 ft 437 kts 209°
2026-04-26 18:10 30.41350 -15.86300 35064 ft 437 kts 209°
2026-04-26 18:10 30.35996 -15.89658 35062 ft 437 kts 209°
2026-04-26 18:11 30.30644 -15.93016 35062 ft 438 kts 209°
2026-04-26 18:11 30.25277 -15.96360 35059 ft 438 kts 209°
2026-04-26 18:12 30.19904 -15.99696 35057 ft 439 kts 209°
2026-04-26 18:12 30.14526 -16.03034 35067 ft 439 kts 209°
2026-04-26 18:13 30.09152 -16.06386 35065 ft 439 kts 209°
2026-04-26 18:13 30.03769 -16.09730 35065 ft 439 kts 209°
2026-04-26 18:14 29.98380 -16.13070 35066 ft 440 kts 209°
2026-04-26 18:14 29.92995 -16.16415 35064 ft 440 kts 209°
2026-04-26 18:15 29.87602 -16.19748 35071 ft 440 kts 209°
2026-04-26 18:15 29.82163 -16.23094 35065 ft 440 kts 209°
2026-04-26 18:16 29.76764 -16.26428 35063 ft 440 kts 209°
2026-04-26 18:16 29.68659 -16.31430 35061 ft 441 kts 209°
2026-04-26 18:17 29.63284 -16.34738 35070 ft 441 kts 209°
2026-04-26 18:17 29.57992 -16.38372 35061 ft 440 kts 219°
2026-04-26 18:18 29.53303 -16.42816 35063 ft 440 kts 220°
2026-04-26 18:18 29.48566 -16.47286 35061 ft 441 kts 220°
2026-04-26 18:19 29.43825 -16.51744 35067 ft 441 kts 220°
2026-04-26 18:19 29.39082 -16.56205 35066 ft 441 kts 220°
2026-04-26 18:20 29.34335 -16.60671 35066 ft 441 kts 220°
2026-04-26 18:20 29.30356 -16.64407 35063 ft 441 kts 220°
2026-04-26 18:21 29.24798 -16.69612 35069 ft 442 kts 220°
2026-04-26 18:21 29.20039 -16.74071 35066 ft 442 kts 220°
2026-04-26 18:22 29.15281 -16.78530 35066 ft 442 kts 220°
2026-04-26 18:22 29.10515 -16.82984 35063 ft 442 kts 220°
2026-04-26 18:23 29.05744 -16.87429 35068 ft 443 kts 220°
2026-04-26 18:23 29.00971 -16.91874 35059 ft 443 kts 220°
2026-04-26 18:24 28.96193 -16.96318 34894 ft 444 kts 220°
2026-04-26 18:24 28.93802 -16.98543 34550 ft 444 kts 220°
2026-04-26 18:24 28.91390 -17.00784 33545 ft 449 kts 219°
2026-04-26 18:25 28.88955 -17.03045 32525 ft 454 kts 219°
2026-04-26 18:25 28.86492 -17.05329 31493 ft 458 kts 219°
2026-04-26 18:25 28.84009 -17.07625 30495 ft 462 kts 219°
2026-04-26 18:25 28.81486 -17.09958 29207 ft 471 kts 219°
2026-04-26 18:26 28.78932 -17.12325 28028 ft 474 kts 219°
2026-04-26 18:26 28.76363 -17.14706 26792 ft 479 kts 219°
2026-04-26 18:26 28.73766 -17.17114 25534 ft 483 kts 219°
2026-04-26 18:26 28.71161 -17.19528 24713 ft 480 kts 219°
2026-04-26 18:27 28.68575 -17.21924 24368 ft 478 kts 219°
2026-04-26 18:27 28.65989 -17.24314 24159 ft 478 kts 219°
2026-04-26 18:27 28.63407 -17.26694 24049 ft 477 kts 219°
2026-04-26 18:27 28.60827 -17.29070 23713 ft 476 kts 219°
2026-04-26 18:28 28.58430 -17.31277 22929 ft 470 kts 219°
2026-04-26 18:28 28.55912 -17.33598 22112 ft 463 kts 219°
2026-04-26 18:28 28.53424 -17.35891 21309 ft 457 kts 219°
2026-04-26 18:28 28.50952 -17.38142 20556 ft 452 kts 216°
2026-04-26 18:29 28.48221 -17.39744 20371 ft 435 kts 197°
2026-04-26 18:29 28.45303 -17.40228 20240 ft 418 kts 178°
2026-04-26 18:29 28.42515 -17.39611 20119 ft 402 kts 159°
2026-04-26 18:29 28.40152 -17.38057 19995 ft 387 kts 140°
2026-04-26 18:30 28.38394 -17.35820 19868 ft 374 kts 122°
2026-04-26 18:30 28.37092 -17.33321 19745 ft 362 kts 120°
2026-04-26 18:30 28.35839 -17.30896 19621 ft 350 kts 121°
2026-04-26 18:30 28.34621 -17.28552 19441 ft 341 kts 121°
2026-04-26 18:31 28.33419 -17.26247 19125 ft 337 kts 121°
2026-04-26 18:31 28.32226 -17.23962 18776 ft 335 kts 121°
2026-04-26 18:31 28.31042 -17.21691 18417 ft 334 kts 121°
2026-04-26 18:31 28.29865 -17.19432 18030 ft 332 kts 121°
2026-04-26 18:32 28.28690 -17.17179 17650 ft 331 kts 121°
2026-04-26 18:32 28.27523 -17.14942 17265 ft 329 kts 121°
2026-04-26 18:32 28.26359 -17.12711 16903 ft 328 kts 121°
2026-04-26 18:32 28.25138 -17.10535 16546 ft 326 kts 124°
2026-04-26 18:33 28.23867 -17.08430 16053 ft 322 kts 125°
2026-04-26 18:33 28.22580 -17.06367 15443 ft 320 kts 126°
2026-04-26 18:33 28.21293 -17.04325 14851 ft 317 kts 126°
2026-04-26 18:33 28.20021 -17.02293 14280 ft 315 kts 125°
2026-04-26 18:34 28.18793 -17.00316 14135 ft 297 kts 125°
2026-04-26 18:34 28.17626 -16.98469 13950 ft 282 kts 130°
2026-04-26 18:34 28.16193 -16.97000 13547 ft 276 kts 148°
2026-04-26 18:34 28.14473 -16.96070 13055 ft 273 kts 159°
2026-04-26 18:35 28.12706 -16.95287 12562 ft 272 kts 159°
2026-04-26 18:35 28.10951 -16.94508 12081 ft 270 kts 159°
2026-04-26 18:35 28.09206 -16.93733 11596 ft 269 kts 159°
2026-04-26 18:35 28.07470 -16.92960 11124 ft 267 kts 159°
2026-04-26 18:36 28.05748 -16.92192 10652 ft 265 kts 159°
2026-04-26 18:36 28.04028 -16.91456 10173 ft 263 kts 166°
2026-04-26 18:36 28.02237 -16.91431 9682 ft 257 kts 198°
2026-04-26 18:36 28.00721 -16.92421 9154 ft 252 kts 228°
2026-04-26 18:37 27.99824 -16.94095 8580 ft 250 kts 249°
2026-04-26 18:37 27.99149 -16.95913 8007 ft 251 kts 249°
2026-04-26 18:37 27.98464 -16.97763 7570 ft 252 kts 249°
2026-04-26 18:37 27.97788 -16.99585 7240 ft 251 kts 248°
2026-04-26 18:38 27.97111 -17.01402 6907 ft 250 kts 248°
2026-04-26 18:38 27.96434 -17.03214 6581 ft 250 kts 248°
2026-04-26 18:38 27.95757 -17.05015 6256 ft 248 kts 248°
2026-04-26 18:38 27.95081 -17.06810 5917 ft 247 kts 248°
2026-04-26 18:39 27.94410 -17.08594 5578 ft 246 kts 248°
2026-04-26 18:39 27.93738 -17.10372 5246 ft 245 kts 248°
2026-04-26 18:39 27.93072 -17.12138 5020 ft 242 kts 249°
2026-04-26 18:39 27.92281 -17.13826 4896 ft 245 kts 229°
2026-04-26 18:40 27.90899 -17.14909 4770 ft 245 kts 197°
2026-04-26 18:40 27.89228 -17.15039 4636 ft 242 kts 165°
2026-04-26 18:40 27.87655 -17.14373 4511 ft 242 kts 155°
2026-04-26 18:40 27.86136 -17.13567 4378 ft 240 kts 143°
2026-04-26 18:41 27.85063 -17.12179 4255 ft 235 kts 111°
2026-04-26 18:41 27.84775 -17.10404 4135 ft 229 kts 81°
2026-04-26 18:41 27.85246 -17.08700 4026 ft 228 kts 65°
2026-04-26 18:41 27.85867 -17.07057 4027 ft 228 kts 65°
2026-04-26 18:42 27.86493 -17.05409 4039 ft 228 kts 65°
2026-04-26 18:42 27.87117 -17.03765 4029 ft 228 kts 65°
2026-04-26 18:42 27.87742 -17.02115 4027 ft 228 kts 65°
2026-04-26 18:42 27.88362 -17.00472 4035 ft 228 kts 65°
2026-04-26 18:43 27.88985 -16.98822 4039 ft 228 kts 65°
2026-04-26 18:43 27.89605 -16.97180 4032 ft 223 kts 65°
2026-04-26 18:43 27.90204 -16.95591 4028 ft 219 kts 65°
2026-04-26 18:43 27.90800 -16.94011 4031 ft 218 kts 65°
2026-04-26 18:44 27.91392 -16.92436 4023 ft 218 kts 65°
2026-04-26 18:44 27.91985 -16.90860 4035 ft 219 kts 65°
2026-04-26 18:44 27.92580 -16.89278 4035 ft 218 kts 65°
2026-04-26 18:44 27.93173 -16.87699 4018 ft 218 kts 65°
2026-04-26 18:45 27.93768 -16.86121 4016 ft 218 kts 65°
2026-04-26 18:45 27.94403 -16.84530 3675 ft 223 kts 64°
2026-04-26 18:45 27.95052 -16.82952 3425 ft 219 kts 63°
2026-04-26 18:45 27.95694 -16.81401 3172 ft 217 kts 63°
2026-04-26 18:46 27.96124 -16.80361 3062 ft 215 kts 63°
2026-04-26 18:46 27.96758 -16.78826 3014 ft 215 kts 63°
2026-04-26 18:46 27.97383 -16.77318 3014 ft 205 kts 64°
2026-04-26 18:46 27.97934 -16.75870 3007 ft 197 kts 65°
2026-04-26 18:47 27.98444 -16.74441 2987 ft 195 kts 66°
2026-04-26 18:47 27.98945 -16.73015 2817 ft 194 kts 66°
2026-04-26 18:47 27.99426 -16.71639 2579 ft 188 kts 66°
2026-04-26 18:47 27.99906 -16.70268 2332 ft 183 kts 66°
2026-04-26 18:48 28.00367 -16.68948 2093 ft 178 kts 66°
2026-04-26 18:48 28.00810 -16.67680 1857 ft 169 kts 66°
2026-04-26 18:48 28.01230 -16.66475 1641 ft 159 kts 67°
2026-04-26 18:48 28.01622 -16.65352 1428 ft 149 kts 66°
2026-04-26 18:49 28.01994 -16.64289 1233 ft 142 kts 65°
2026-04-26 18:49 28.02361 -16.63235 1041 ft 143 kts 68°
2026-04-26 18:49 28.02721 -16.62208 867 ft 140 kts 68°
2026-04-26 18:49 28.03077 -16.61188 682 ft 139 kts 71°
2026-04-26 18:50 28.03427 -16.60179 502 ft 137 kts 70°
2026-04-26 18:50 28.03773 -16.59184 317 ft 135 kts 69°
2026-04-26 18:50 28.04113 -16.58216 204 ft 128 kts 69°
2026-04-26 18:50 28.04382 -16.57436 200 ft 82 kts 69°
2026-04-26 18:51 28.04531 -16.57008 199 ft 41 kts 68°
2026-04-26 18:51 28.04626 -16.56736 204 ft 34 kts 69°
2026-04-26 18:51 28.04726 -16.56542 204 ft 22 kts 47°
2026-04-26 18:51 28.04820 -16.56437 215 ft 15 kts 43°
2026-04-26 18:52 28.04889 -16.56367 219 ft 12 kts 41°
2026-04-26 18:52 28.04938 -16.56378 219 ft 9 kts 289°
2026-04-26 18:52 28.04924 -16.56438 225 ft 7 kts 249°
2026-04-26 18:52 28.04907 -16.56489 223 ft 6 kts 249°
2026-04-26 18:53 28.04893 -16.56531 225 ft 5 kts 249°
2026-04-26 18:53 28.04878 -16.56573 221 ft 9 kts 248°
2026-04-26 18:53 28.04849 -16.56652 223 ft 11 kts 248°
2026-04-26 18:53 28.04822 -16.56730 224 ft 10 kts 248°
2026-04-26 18:54 28.04798 -16.56799 224 ft 9 kts 248°
2026-04-26 18:54 28.04777 -16.56860 222 ft 8 kts 248°
2026-04-26 18:54 28.04758 -16.56913 222 ft 7 kts 248°
2026-04-26 18:54 28.04741 -16.56961 221 ft 7 kts 248°
2026-04-26 18:55 28.04719 -16.57024 224 ft 10 kts 248°
2026-04-26 18:55 28.04691 -16.57103 224 ft 10 kts 247°
2026-04-26 18:55 28.04659 -16.57171 223 ft 9 kts 243°
2026-04-26 18:55 28.04636 -16.57238 223 ft 9 kts 248°
2026-04-26 18:56 28.04612 -16.57304 223 ft 9 kts 248°
2026-04-26 18:56 28.04588 -16.57372 224 ft 9 kts 248°
2026-04-26 18:56 28.04575 -16.57442 223 ft 9 kts 297°
2026-04-26 18:56 28.04624 -16.57467 225 ft 7 kts 337°
2026-04-26 18:57 28.04666 -16.57487 224 ft 5 kts 337°
2026-04-26 18:57 28.04679 -16.57500 224 ft 3 kts 294°
2026-04-26 18:57 28.04670 -16.57539 224 ft 6 kts 249°
2026-04-26 18:57 28.04652 -16.57595 225 ft 9 kts 250°
2026-04-26 18:58 28.04641 -16.57652 225 ft 2 kts 301°
2026-04-26 18:58 28.04661 -16.57660 225 ft 2 kts 339°
2026-04-26 18:58 28.04679 -16.57668 226 ft 3 kts 339°
2026-04-26 18:58 28.04702 -16.57677 226 ft 3 kts 339°
2026-04-26 18:59 28.04710 -16.57681 226 ft 0 kts 339°
2026-04-26 19:10 28.31709 -17.22970 18627 ft 317 kts 121°
2026-04-26 19:11 27.97389 -16.77303 3029 ft 203 kts 64°